Tracking 29089 objects as of 12-Jul-2024
HD Live streaming from Space Station
objects crossing your sky now

CZ-4B DEB

Track CZ-4B DEB now!
10-day predictions


NORAD ID: 43660
Int'l Code: 2018-081D
Perigee: 924.5 km
Apogee: 945.5 km
Inclination: 99.2 °
Period: 103.6 minutes
Semi major axis: 7305 km
RCS: Unknown
Launch date: October 24, 2018
Source: People's Republic of China (PRC)
Launch site: Taiyaun Space Center, China (TSC)

Note: This is SATELLITE DEBRIS
Your satellite tracking list
Your tracking list is empty




NASA's NSSDC Master Catalog

Two Line Element Set (TLE):
1 43660U 18081D   24193.50476888  .00000224  00000-0  21623-3 0  9997
2 43660  99.1830 222.2998 0014385 107.5982 252.6749 13.90223446289848
Source of the keplerian elements: AFSPC